Year,Month,Day,Hour,Minute,Value (Times are PST for temperature in C)
2002,05,21,00,00,9.40
2002,05,21,00,01,9.40
2002,05,21,00,02,9.40
2002,05,21,00,03,9.40
2002,05,21,00,04,9.40
2002,05,21,00,05,9.20
2002,05,21,00,06,9.10
2002,05,21,00,07,9.20
2002,05,21,00,08,9.20
2002,05,21,00,09,9.20
2002,05,21,00,10,9.20
2002,05,21,00,11,9.20
2002,05,21,00,12,9.20
2002,05,21,00,13,9.20
2002,05,21,00,14,9.20
2002,05,21,00,15,9.20
2002,05,21,00,16,9.20
2002,05,21,00,17,9.20
2002,05,21,00,18,9.20
2002,05,21,00,19,9.20
2002,05,21,00,20,9.20
2002,05,21,00,21,9.20
2002,05,21,00,22,9.20
2002,05,21,00,23,9.20
2002,05,21,00,24,9.20
2002,05,21,00,25,9.20
2002,05,21,00,26,9.20
2002,05,21,00,27,9.20
2002,05,21,00,28,9.20
2002,05,21,00,29,9.20
2002,05,21,00,30,9.20
2002,05,21,00,31,9.20
2002,05,21,00,32,9.20
2002,05,21,00,33,9.20
2002,05,21,00,34,9.20
2002,05,21,00,35,9.20
2002,05,21,00,36,9.20
2002,05,21,00,37,9.20
2002,05,21,00,38,9.20
2002,05,21,00,39,9.20
2002,05,21,00,40,9.20
2002,05,21,00,41,9.20
2002,05,21,00,42,9.20
2002,05,21,00,43,9.20
2002,05,21,00,44,9.20
2002,05,21,00,45,9.20
2002,05,21,00,46,9.20
2002,05,21,00,47,9.20
2002,05,21,00,48,9.20
2002,05,21,00,49,9.20
2002,05,21,00,50,9.20
2002,05,21,00,51,9.20
2002,05,21,00,52,9.20
2002,05,21,00,53,9.20
2002,05,21,00,54,9.20
2002,05,21,00,55,9.20
2002,05,21,00,56,9.20
2002,05,21,00,57,9.20
2002,05,21,00,58,9.20
2002,05,21,00,59,9.20
2002,05,21,01,00,9.20
2002,05,21,01,01,9.20
2002,05,21,01,02,9.20
2002,05,21,01,03,9.20
2002,05,21,01,04,9.20
2002,05,21,01,07,9.20
2002,05,21,01,08,9.20
2002,05,21,01,09,9.20
2002,05,21,01,10,9.20
2002,05,21,01,11,9.20
2002,05,21,01,12,9.20
2002,05,21,01,13,9.20
2002,05,21,01,14,9.20
2002,05,21,01,15,9.20
2002,05,21,01,16,9.20
2002,05,21,01,17,9.20
2002,05,21,01,18,9.20
2002,05,21,01,19,9.20
2002,05,21,01,20,9.20
2002,05,21,01,21,9.20
2002,05,21,01,22,9.20
2002,05,21,01,23,9.20
2002,05,21,01,24,9.20
2002,05,21,01,25,9.20
2002,05,21,01,26,9.20
2002,05,21,01,27,9.20
2002,05,21,01,28,9.20
2002,05,21,07,01,7.50
2002,05,21,07,02,7.50
2002,05,21,07,03,7.60
2002,05,21,07,04,7.60
2002,05,21,07,05,7.70
2002,05,21,07,06,7.70
2002,05,21,07,07,7.80
2002,05,21,07,08,7.80
2002,05,21,07,09,7.80
2002,05,21,07,10,7.80
2002,05,21,07,11,7.80
2002,05,21,07,12,7.90
2002,05,21,07,13,8.00
2002,05,21,07,14,8.00
2002,05,21,07,15,8.00
2002,05,21,07,16,8.00
2002,05,21,07,17,8.00
2002,05,21,07,18,8.00
2002,05,21,07,19,8.00
2002,05,21,07,20,8.00
2002,05,21,07,21,8.00
2002,05,21,07,22,8.00
2002,05,21,07,23,8.00
2002,05,21,07,24,8.00
2002,05,21,07,25,8.00
2002,05,21,07,26,8.00
2002,05,21,07,27,8.00
2002,05,21,07,28,8.00
2002,05,21,07,47,8.90
2002,05,21,07,48,9.00
2002,05,21,07,49,9.20
2002,05,21,07,50,9.30
2002,05,21,07,51,9.30
2002,05,21,07,52,9.50
2002,05,21,07,53,9.60
2002,05,21,07,54,9.60
2002,05,21,07,55,9.80
2002,05,21,07,56,10.10
2002,05,21,07,57,10.30
2002,05,21,07,58,10.40
2002,05,21,07,59,10.50
2002,05,21,08,00,10.70
2002,05,21,08,01,10.80
2002,05,21,08,02,10.90
2002,05,21,08,03,11.00
2002,05,21,08,04,11.10
2002,05,21,08,05,11.20
2002,05,21,08,06,11.40
2002,05,21,08,07,11.40
2002,05,21,08,08,11.50
2002,05,21,08,09,11.60
2002,05,21,08,10,11.70
2002,05,21,08,11,11.80
2002,05,21,08,12,11.90
2002,05,21,08,13,12.00
2002,05,21,08,14,12.10
2002,05,21,08,15,12.10
2002,05,21,08,16,12.10
2002,05,21,08,17,12.20
2002,05,21,08,18,12.30
2002,05,21,08,19,12.30
2002,05,21,08,20,12.30
2002,05,21,08,21,12.40
2002,05,21,08,22,12.40
2002,05,21,08,23,12.60
2002,05,21,08,24,12.70
2002,05,21,08,25,12.80
2002,05,21,08,26,12.80
2002,05,21,08,27,12.90
2002,05,21,08,28,12.90
2002,05,21,08,29,12.90
2002,05,21,08,30,13.00
2002,05,21,08,31,13.00
2002,05,21,08,32,13.10
2002,05,21,08,33,13.20
2002,05,21,08,34,13.20
2002,05,21,08,35,13.20
2002,05,21,08,36,13.30
2002,05,21,08,37,13.40
2002,05,21,08,38,13.40
2002,05,21,08,39,13.40
2002,05,21,08,40,13.50
2002,05,21,08,41,13.50
2002,05,21,08,42,13.40
2002,05,21,08,43,13.50
2002,05,21,08,44,13.50
2002,05,21,08,45,13.60
2002,05,21,08,46,13.50
2002,05,21,08,47,13.40
2002,05,21,08,48,13.30
2002,05,21,08,49,13.30
2002,05,21,08,50,13.30
2002,05,21,08,51,13.40
2002,05,21,08,52,13.40
2002,05,21,08,53,13.30
2002,05,21,08,54,13.30
2002,05,21,08,55,13.30
2002,05,21,08,56,13.40
2002,05,21,08,57,13.50
2002,05,21,08,58,13.50
2002,05,21,08,59,13.60
2002,05,21,09,00,13.60
2002,05,21,09,01,13.70
2002,05,21,09,02,13.90
2002,05,21,09,03,14.00
2002,05,21,09,04,14.10
2002,05,21,09,05,14.20
2002,05,21,09,06,14.20
2002,05,21,09,07,14.20
2002,05,21,09,08,14.20
2002,05,21,09,09,14.20
2002,05,21,09,10,14.10
2002,05,21,09,11,14.00
2002,05,21,09,12,14.00
2002,05,21,09,13,14.10
2002,05,21,09,14,14.20
2002,05,21,09,15,14.30
2002,05,21,09,16,14.40
2002,05,21,09,17,14.40
2002,05,21,09,18,14.40
2002,05,21,09,19,14.40
2002,05,21,09,20,14.40
2002,05,21,09,21,14.30
2002,05,21,09,22,14.30
2002,05,21,09,23,14.30
2002,05,21,09,24,14.10
2002,05,21,09,25,14.00
2002,05,21,09,26,14.00
2002,05,21,09,27,13.90
2002,05,21,09,28,13.90
2002,05,21,09,29,13.90
2002,05,21,09,30,13.90
2002,05,21,09,31,13.80
2002,05,21,09,32,13.80
2002,05,21,09,33,13.90
2002,05,21,09,34,14.00
2002,05,21,09,35,14.00
2002,05,21,09,36,14.00
2002,05,21,09,37,14.10
2002,05,21,09,38,14.20
2002,05,21,09,39,14.20
2002,05,21,09,40,14.40
2002,05,21,09,41,14.50
2002,05,21,09,42,14.60
2002,05,21,09,43,14.60
2002,05,21,09,44,14.80
2002,05,21,09,45,14.80
2002,05,21,09,46,14.90
2002,05,21,09,47,14.90
2002,05,21,09,48,14.90
2002,05,21,09,49,14.80
2002,05,21,09,50,14.90
2002,05,21,09,51,14.90
2002,05,21,09,52,14.90
2002,05,21,09,53,14.90
2002,05,21,09,54,14.90
2002,05,21,09,55,14.90
2002,05,21,09,56,15.00
2002,05,21,09,57,15.00
2002,05,21,09,58,15.00
2002,05,21,09,59,15.10
2002,05,21,10,00,15.10
2002,05,21,10,01,15.20
2002,05,21,10,02,15.00
2002,05,21,10,03,15.00
2002,05,21,10,04,15.10
2002,05,21,10,05,14.90
2002,05,21,10,06,14.80
2002,05,21,10,07,14.70
2002,05,21,10,08,14.70
2002,05,21,10,09,14.70
2002,05,21,10,10,14.80
2002,05,21,10,11,14.70
2002,05,21,10,12,14.80
2002,05,21,10,13,14.80
2002,05,21,10,14,14.90
2002,05,21,10,15,15.00
2002,05,21,10,16,15.00
2002,05,21,10,17,15.10
2002,05,21,10,18,15.00
2002,05,21,10,19,15.00
2002,05,21,10,20,14.90
2002,05,21,10,21,14.90
2002,05,21,10,22,14.90
2002,05,21,10,23,14.90
2002,05,21,10,24,14.90
2002,05,21,10,25,14.70
2002,05,21,10,26,14.70
2002,05,21,10,27,14.60
2002,05,21,10,28,14.50
2002,05,21,10,29,14.50
2002,05,21,10,30,14.50
2002,05,21,10,31,14.50
2002,05,21,10,32,14.50
2002,05,21,10,33,14.40
2002,05,21,10,34,14.30
2002,05,21,10,35,14.40
2002,05,21,10,36,14.40
2002,05,21,10,37,14.40
2002,05,21,10,38,14.40
2002,05,21,10,39,14.50
2002,05,21,10,40,14.60
2002,05,21,10,41,14.60
2002,05,21,10,42,14.60
2002,05,21,10,43,14.60
2002,05,21,10,44,14.60
2002,05,21,10,45,14.70
2002,05,21,10,46,14.80
2002,05,21,10,47,14.80
2002,05,21,10,48,14.80
2002,05,21,10,49,14.70
2002,05,21,10,50,14.70
2002,05,21,10,51,14.90
2002,05,21,10,52,15.00
2002,05,21,10,53,15.10
2002,05,21,10,54,15.30
2002,05,21,10,55,15.40
2002,05,21,10,56,15.40
2002,05,21,10,57,15.50
2002,05,21,10,58,15.30
2002,05,21,10,59,15.20
2002,05,21,11,00,15.30
2002,05,21,11,01,15.30
2002,05,21,11,02,15.40
2002,05,21,11,03,15.50
2002,05,21,11,04,15.70
2002,05,21,11,05,15.80
2002,05,21,11,06,15.80
2002,05,21,11,07,15.70
2002,05,21,11,08,15.70
2002,05,21,11,09,15.60
2002,05,21,11,10,15.60
2002,05,21,11,11,15.50
2002,05,21,11,12,15.40
2002,05,21,11,13,15.40
2002,05,21,11,14,15.40
2002,05,21,11,15,15.50
2002,05,21,11,16,15.50
2002,05,21,11,17,15.40
2002,05,21,11,18,15.40
2002,05,21,11,19,15.30
2002,05,21,11,20,15.30
2002,05,21,11,21,15.30
2002,05,21,11,22,15.40
2002,05,21,11,23,15.40
2002,05,21,11,24,15.40
2002,05,21,11,25,15.40
2002,05,21,11,26,15.30
2002,05,21,11,27,15.40
2002,05,21,11,28,15.40
2002,05,21,11,29,15.30
2002,05,21,11,30,15.20
2002,05,21,11,31,15.20
2002,05,21,11,32,15.20
2002,05,21,11,33,15.20
2002,05,21,11,34,15.20
2002,05,21,11,35,15.30
2002,05,21,11,36,15.40
2002,05,21,11,37,15.50
2002,05,21,11,38,15.70
2002,05,21,11,39,15.80
2002,05,21,11,40,15.80
2002,05,21,11,41,15.80
2002,05,21,11,42,15.80
2002,05,21,11,43,15.70
2002,05,21,11,44,15.80
2002,05,21,11,45,15.70
2002,05,21,11,46,15.60
2002,05,21,11,47,15.70
2002,05,21,11,48,15.80
2002,05,21,11,49,15.90
2002,05,21,11,50,16.00
2002,05,21,11,51,16.10
2002,05,21,11,52,16.10
2002,05,21,11,53,16.30
2002,05,21,11,54,16.20
2002,05,21,11,55,16.30
2002,05,21,11,56,16.40
2002,05,21,11,57,16.50
2002,05,21,11,58,16.60
2002,05,21,11,59,16.60
2002,05,21,12,00,16.60
2002,05,21,12,01,16.40
2002,05,21,12,02,16.40
2002,05,21,12,03,16.30
2002,05,21,12,04,16.40
2002,05,21,12,05,16.40
2002,05,21,12,06,16.20
2002,05,21,12,07,16.30
2002,05,21,12,08,16.40
2002,05,21,12,09,16.40
2002,05,21,12,10,16.40
2002,05,21,12,11,16.40
2002,05,21,12,12,16.50
2002,05,21,12,13,16.50
2002,05,21,12,14,16.50
2002,05,21,12,15,16.60
2002,05,21,12,16,16.70
2002,05,21,12,17,16.80
2002,05,21,12,18,16.70
2002,05,21,12,19,16.50
2002,05,21,12,20,16.60
2002,05,21,12,21,16.70
2002,05,21,12,22,16.70
2002,05,21,12,23,16.80
2002,05,21,12,24,16.90
2002,05,21,12,25,17.00
2002,05,21,12,26,17.00
2002,05,21,12,27,17.00
2002,05,21,12,28,17.00
2002,05,21,12,29,17.20
2002,05,21,12,30,17.10
2002,05,21,12,31,17.30
2002,05,21,12,32,17.40
2002,05,21,12,33,17.40
2002,05,21,12,34,17.60
2002,05,21,12,35,17.70
2002,05,21,12,36,17.60
2002,05,21,12,37,17.50
2002,05,21,12,38,17.30
2002,05,21,12,39,17.10
2002,05,21,12,40,17.20
2002,05,21,12,41,17.10
2002,05,21,12,42,17.10
2002,05,21,12,43,17.00
2002,05,21,12,44,17.00
2002,05,21,12,45,17.00
2002,05,21,12,46,17.10
2002,05,21,12,47,17.10
2002,05,21,12,48,17.00
2002,05,21,12,49,17.00
2002,05,21,12,50,16.90
2002,05,21,12,51,16.80
2002,05,21,12,52,16.70
2002,05,21,12,53,16.80
2002,05,21,12,54,16.70
2002,05,21,12,55,16.70
2002,05,21,12,56,16.70
2002,05,21,12,57,16.70
2002,05,21,12,58,16.70
2002,05,21,12,59,16.70
2002,05,21,13,00,16.70
2002,05,21,13,01,16.50
2002,05,21,13,02,16.40
2002,05,21,13,03,16.40
2002,05,21,13,04,16.50
2002,05,21,13,05,16.50
2002,05,21,13,06,16.60
2002,05,21,13,07,16.40
2002,05,21,13,08,16.40
2002,05,21,13,09,16.30
2002,05,21,13,10,16.20
2002,05,21,13,11,16.20
2002,05,21,13,12,16.30
2002,05,21,13,13,16.30
2002,05,21,13,14,16.30
2002,05,21,13,15,16.40
2002,05,21,13,16,16.30
2002,05,21,13,17,16.50
2002,05,21,13,18,16.70
2002,05,21,13,19,16.80
2002,05,21,13,20,16.90
2002,05,21,13,21,17.00
2002,05,21,13,22,17.30
2002,05,21,13,23,17.40
2002,05,21,13,24,17.30
2002,05,21,13,25,17.30
2002,05,21,13,26,17.40
2002,05,21,13,27,17.40
2002,05,21,13,28,17.40
2002,05,21,13,29,17.40
2002,05,21,13,30,17.20
2002,05,21,13,31,17.20
2002,05,21,13,32,17.10
2002,05,21,13,33,17.00
2002,05,21,13,34,17.00
2002,05,21,13,35,16.90
2002,05,21,13,36,16.90
2002,05,21,13,37,16.90
2002,05,21,13,38,16.90
2002,05,21,13,39,16.90
2002,05,21,13,40,16.80
2002,05,21,13,41,16.60
2002,05,21,13,42,16.20
2002,05,21,13,43,16.20
2002,05,21,13,44,16.00
2002,05,21,13,45,15.90
2002,05,21,13,46,15.90
2002,05,21,13,47,15.80
2002,05,21,13,48,15.60
2002,05,21,13,49,15.60
2002,05,21,13,50,15.60
2002,05,21,13,51,15.60
2002,05,21,13,52,15.60
2002,05,21,13,53,15.60
2002,05,21,13,54,15.60
2002,05,21,13,55,15.60
2002,05,21,13,56,15.60
2002,05,21,13,57,15.60
2002,05,21,13,58,15.60
2002,05,21,13,59,15.40
2002,05,21,14,00,15.60
2002,05,21,14,01,15.50
2002,05,21,14,02,15.50
2002,05,21,14,03,15.40
2002,05,21,14,04,15.40
2002,05,21,14,05,15.40
2002,05,21,14,06,15.50
2002,05,21,14,07,15.50
2002,05,21,14,08,15.50
2002,05,21,14,09,15.40
2002,05,21,14,10,15.30
2002,05,21,14,11,15.30
2002,05,21,14,12,15.40
2002,05,21,14,13,15.40
2002,05,21,14,14,15.50
2002,05,21,14,15,15.50
2002,05,21,14,16,15.50
2002,05,21,14,17,15.60
2002,05,21,14,18,15.60
2002,05,21,14,19,15.70
2002,05,21,14,20,15.70
2002,05,21,14,21,15.60
2002,05,21,14,22,15.70
2002,05,21,14,23,15.70
2002,05,21,14,24,15.80
2002,05,21,14,25,15.80
2002,05,21,14,26,15.80
2002,05,21,14,27,15.90
2002,05,21,14,28,15.90
2002,05,21,14,29,16.00
2002,05,21,14,30,16.10
2002,05,21,14,31,16.10
2002,05,21,14,32,16.20
2002,05,21,14,33,16.30
2002,05,21,14,34,16.40
2002,05,21,14,35,16.50
2002,05,21,14,36,16.70
2002,05,21,14,37,16.70
2002,05,21,14,38,16.70
2002,05,21,14,39,16.80
2002,05,21,14,40,16.80
2002,05,21,14,41,16.80
2002,05,21,14,42,16.90
2002,05,21,14,43,16.90
2002,05,21,14,44,17.10
2002,05,21,14,45,17.10
2002,05,21,14,46,17.30
2002,05,21,14,47,17.30
2002,05,21,14,48,17.30
2002,05,21,14,49,17.20
2002,05,21,14,50,17.40
2002,05,21,14,51,17.50
2002,05,21,14,52,17.50
2002,05,21,14,53,17.70
2002,05,21,14,54,17.80
2002,05,21,14,55,17.90
2002,05,21,14,56,17.90
2002,05,21,14,57,17.90
2002,05,21,14,58,18.00
2002,05,21,14,59,18.00
2002,05,21,15,00,17.90
2002,05,21,15,01,17.90
2002,05,21,15,02,18.00
2002,05,21,15,03,18.10
2002,05,21,15,04,18.20
2002,05,21,15,05,18.30
2002,05,21,15,06,18.40
2002,05,21,15,07,18.50
2002,05,21,15,08,18.40
2002,05,21,15,09,18.30
2002,05,21,15,10,18.20
2002,05,21,15,11,18.00
2002,05,21,15,12,17.80
2002,05,21,15,13,17.90
2002,05,21,15,14,18.00
2002,05,21,15,15,18.10
2002,05,21,15,16,18.20
2002,05,21,15,17,18.40
2002,05,21,15,18,18.30
2002,05,21,15,19,18.20
2002,05,21,15,20,18.30
2002,05,21,15,21,18.50
2002,05,21,15,22,18.50
2002,05,21,15,23,18.70
2002,05,21,15,24,18.80
2002,05,21,15,25,18.90
2002,05,21,15,26,18.90
2002,05,21,15,27,18.90
2002,05,21,15,28,18.90
2002,05,21,15,29,18.80
2002,05,21,15,30,18.90
2002,05,21,15,31,18.80
2002,05,21,15,32,18.90
2002,05,21,15,33,18.90
2002,05,21,15,34,18.90
2002,05,21,15,35,18.90
2002,05,21,15,36,19.00
2002,05,21,15,37,18.70
2002,05,21,15,38,18.50
2002,05,21,15,39,18.30
2002,05,21,15,40,18.10
2002,05,21,15,41,18.10
2002,05,21,15,42,18.20
2002,05,21,15,43,18.40
2002,05,21,15,44,18.60
2002,05,21,15,45,18.80
2002,05,21,15,46,18.90
2002,05,21,15,47,18.90
2002,05,21,15,48,18.90
2002,05,21,15,49,18.80
2002,05,21,15,50,18.70
2002,05,21,15,51,18.50
2002,05,21,15,52,18.20
2002,05,21,15,53,18.20
2002,05,21,15,54,18.10
2002,05,21,15,55,18.10
2002,05,21,15,56,18.00
2002,05,21,15,57,17.90
2002,05,21,15,58,18.10
2002,05,21,15,59,18.10
2002,05,21,16,00,18.10
2002,05,21,16,01,18.10
2002,05,21,16,02,18.10
2002,05,21,16,03,18.10
2002,05,21,16,04,18.20
2002,05,21,16,05,18.10
2002,05,21,16,06,18.20
2002,05,21,16,07,18.20
2002,05,21,16,08,18.20
2002,05,21,16,09,18.20
2002,05,21,16,10,18.30
2002,05,21,16,11,18.40
2002,05,21,16,12,18.50
2002,05,21,16,13,18.60
2002,05,21,16,14,18.60
2002,05,21,16,15,18.50
2002,05,21,16,16,18.50
2002,05,21,16,17,18.50
2002,05,21,16,18,18.50
2002,05,21,16,19,18.50
2002,05,21,16,20,18.60
2002,05,21,16,21,18.60
2002,05,21,16,22,18.60
2002,05,21,16,23,18.60
2002,05,21,16,24,18.50
2002,05,21,16,25,18.50
2002,05,21,16,26,18.50
2002,05,21,16,27,18.40
2002,05,21,16,28,18.40
2002,05,21,16,29,18.50
2002,05,21,16,30,18.50
2002,05,21,16,31,18.50
2002,05,21,16,32,18.50
2002,05,21,16,33,18.40
2002,05,21,16,34,18.40
2002,05,21,16,35,18.40
2002,05,21,16,36,18.50
2002,05,21,16,37,18.40
2002,05,21,16,38,18.40
2002,05,21,16,39,18.50
2002,05,21,16,40,18.60
2002,05,21,16,41,18.60
2002,05,21,16,42,18.70
2002,05,21,16,43,18.70
2002,05,21,16,44,18.80
2002,05,21,16,45,18.70
2002,05,21,16,46,18.80
2002,05,21,16,47,18.70
2002,05,21,16,48,18.80
2002,05,21,16,49,18.80
2002,05,21,16,50,18.80
2002,05,21,16,51,18.80
2002,05,21,16,52,18.80
2002,05,21,16,53,18.70
2002,05,21,16,54,18.60
2002,05,21,16,55,18.60
2002,05,21,16,56,18.60
2002,05,21,16,57,18.60
2002,05,21,16,58,18.60
2002,05,21,16,59,18.60
2002,05,21,17,00,18.50
2002,05,21,17,01,18.50
2002,05,21,17,02,18.50
2002,05,21,17,03,18.50
2002,05,21,17,04,18.50
2002,05,21,17,05,18.60
2002,05,21,17,06,18.60
2002,05,21,17,07,18.70
2002,05,21,17,08,18.70
2002,05,21,17,09,18.70
2002,05,21,17,10,18.60
2002,05,21,17,11,18.50
2002,05,21,17,12,18.50
2002,05,21,17,13,18.50
2002,05,21,17,14,18.60
2002,05,21,17,15,18.60
2002,05,21,17,16,18.40
2002,05,21,17,17,18.30
2002,05,21,17,18,18.30
2002,05,21,17,19,18.40
2002,05,21,17,20,18.40
2002,05,21,17,21,18.40
2002,05,21,17,22,18.30
2002,05,21,17,23,18.30
2002,05,21,17,24,18.40
2002,05,21,17,25,18.30
2002,05,21,17,26,18.30
2002,05,21,17,27,18.20
2002,05,21,17,28,18.30
2002,05,21,17,29,18.30
2002,05,21,17,30,18.50
2002,05,21,17,31,18.50
2002,05,21,17,32,18.30
2002,05,21,17,33,18.30
2002,05,21,17,34,18.30
2002,05,21,17,35,18.30
2002,05,21,17,36,18.40
2002,05,21,17,37,18.30
2002,05,21,17,38,18.30
2002,05,21,17,39,18.40
2002,05,21,17,40,18.40
2002,05,21,17,41,18.40
2002,05,21,17,42,18.40
2002,05,21,17,43,18.40
2002,05,21,17,44,18.40
2002,05,21,17,45,18.50
2002,05,21,17,46,18.50
2002,05,21,17,47,18.50
2002,05,21,17,48,18.60
2002,05,21,17,49,18.60
2002,05,21,17,50,18.70
2002,05,21,17,51,18.80
2002,05,21,17,52,18.70
2002,05,21,17,53,18.70
2002,05,21,17,54,18.60
2002,05,21,17,55,18.60
2002,05,21,17,56,18.50
2002,05,21,17,57,18.50
2002,05,21,17,58,18.40
2002,05,21,17,59,18.30
2002,05,21,18,00,18.30
2002,05,21,18,01,18.20
2002,05,21,18,02,18.20
2002,05,21,18,03,18.10
2002,05,21,18,04,18.00
2002,05,21,18,05,18.00
2002,05,21,18,06,18.00
2002,05,21,18,07,18.10
2002,05,21,18,08,18.10
2002,05,21,18,09,18.10
2002,05,21,18,10,18.10
2002,05,21,18,11,18.00
2002,05,21,18,12,18.10
2002,05,21,18,13,18.10
2002,05,21,18,14,18.10
2002,05,21,18,15,18.10
2002,05,21,18,16,17.90
2002,05,21,18,17,17.90
2002,05,21,18,18,18.00
2002,05,21,18,19,18.00
2002,05,21,18,20,17.90
2002,05,21,18,21,17.80
2002,05,21,18,22,17.70
2002,05,21,18,23,17.60
2002,05,21,18,24,17.60
2002,05,21,18,25,17.50
2002,05,21,18,26,17.50
2002,05,21,18,27,17.50
2002,05,21,18,28,17.60
2002,05,21,18,29,17.50
2002,05,21,18,30,17.50
2002,05,21,18,31,17.50
2002,05,21,18,32,17.50
2002,05,21,18,33,17.50
2002,05,21,18,34,17.40
2002,05,21,18,35,17.30
2002,05,21,18,36,17.30
2002,05,21,18,37,17.30
2002,05,21,18,38,17.30
2002,05,21,18,39,17.30
2002,05,21,18,40,17.40
2002,05,21,18,41,17.40
2002,05,21,18,42,17.40
2002,05,21,18,43,17.30
2002,05,21,18,44,17.30
2002,05,21,18,45,17.30
2002,05,21,18,46,17.30
2002,05,21,18,47,17.20
2002,05,21,18,48,17.20
2002,05,21,18,49,17.30
2002,05,21,18,50,17.30
2002,05,21,18,51,17.30
2002,05,21,18,52,17.20
2002,05,21,18,53,17.30
2002,05,21,18,54,17.30
2002,05,21,18,55,17.30
2002,05,21,18,56,17.30
2002,05,21,18,57,17.30
2002,05,21,18,58,17.30
2002,05,21,18,59,17.30
2002,05,21,19,00,17.40
2002,05,21,19,01,17.40
2002,05,21,19,02,17.30
2002,05,21,19,03,17.30
2002,05,21,19,04,17.30
2002,05,21,19,05,17.30
2002,05,21,19,06,17.30
2002,05,21,19,07,17.30
2002,05,21,19,08,17.20
2002,05,21,19,09,17.30
2002,05,21,19,10,17.30
2002,05,21,19,11,17.20
2002,05,21,19,12,17.20
2002,05,21,19,13,17.20
2002,05,21,19,14,17.20
2002,05,21,19,15,17.20
2002,05,21,19,16,17.20
2002,05,21,19,17,17.20
2002,05,21,19,18,17.20
2002,05,21,19,19,17.20
2002,05,21,19,20,17.20
2002,05,21,19,21,17.20
2002,05,21,19,22,17.20
2002,05,21,19,23,17.10
2002,05,21,19,24,17.10
2002,05,21,19,25,17.00
2002,05,21,19,26,16.90
2002,05,21,19,27,16.90
2002,05,21,19,28,16.90
2002,05,21,19,29,16.90
2002,05,21,19,30,16.90
2002,05,21,19,31,17.00
2002,05,21,19,32,17.00
2002,05,21,19,33,17.00
2002,05,21,19,34,17.00
2002,05,21,19,35,16.90
2002,05,21,19,36,16.80
2002,05,21,19,37,16.80
2002,05,21,19,38,16.80
2002,05,21,19,39,16.80
2002,05,21,19,40,16.70
2002,05,21,19,41,16.80
2002,05,21,19,42,16.70
2002,05,21,19,43,16.70
2002,05,21,19,44,16.60
2002,05,21,19,45,16.60
2002,05,21,19,46,16.50
2002,05,21,19,47,16.50
2002,05,21,19,48,16.40
2002,05,21,19,49,16.40
2002,05,21,19,50,16.40
2002,05,21,19,51,16.40
2002,05,21,19,52,16.30
2002,05,21,19,53,16.20
2002,05,21,19,54,16.20
2002,05,21,19,55,16.10
2002,05,21,19,56,16.10
2002,05,21,19,57,16.10
2002,05,21,19,58,16.10
2002,05,21,19,59,16.00
2002,05,21,20,00,16.00
2002,05,21,20,01,16.00
2002,05,21,20,02,15.90
2002,05,21,20,03,15.90
2002,05,21,20,04,15.90
2002,05,21,20,05,15.80
2002,05,21,20,06,15.80
2002,05,21,20,07,15.80
2002,05,21,20,08,15.80
2002,05,21,20,09,15.80
2002,05,21,20,10,15.70
2002,05,21,20,11,15.70
2002,05,21,20,12,15.60
2002,05,21,20,13,15.60
2002,05,21,20,14,15.60
2002,05,21,20,15,15.60
2002,05,21,20,16,15.60
2002,05,21,20,17,15.60
2002,05,21,20,18,15.50
2002,05,21,20,19,15.50
2002,05,21,20,20,15.40
2002,05,21,20,21,15.40
2002,05,21,20,22,15.40
2002,05,21,20,23,15.40
2002,05,21,20,24,15.40
2002,05,21,20,25,15.40
2002,05,21,20,26,15.30
2002,05,21,20,27,15.30
2002,05,21,20,28,15.30
2002,05,21,20,29,15.30
2002,05,21,20,30,15.20
2002,05,21,20,31,15.20
2002,05,21,20,32,15.20
2002,05,21,20,33,15.20
2002,05,21,20,34,15.20
2002,05,21,20,35,15.10
2002,05,21,20,36,15.10
2002,05,21,20,37,15.10
2002,05,21,20,38,15.00
2002,05,21,20,39,15.00
2002,05,21,20,40,14.90
2002,05,21,20,41,14.90
2002,05,21,20,42,14.90
2002,05,21,20,43,14.80
2002,05,21,20,44,14.80
2002,05,21,20,45,14.80
2002,05,21,20,46,14.70
2002,05,21,20,47,14.70
2002,05,21,20,48,14.70
2002,05,21,20,49,14.70
2002,05,21,20,50,14.70
2002,05,21,20,51,14.70
2002,05,21,20,52,14.60
2002,05,21,20,53,14.60
2002,05,21,20,54,14.60
2002,05,21,20,55,14.60
2002,05,21,20,56,14.50
2002,05,21,20,57,14.50
2002,05,21,20,58,14.50
2002,05,21,20,59,14.40
2002,05,21,21,00,14.40
2002,05,21,21,01,14.30
2002,05,21,21,02,14.30
2002,05,21,21,03,14.30
2002,05,21,21,04,14.20
2002,05,21,21,05,14.20
2002,05,21,21,06,14.20
2002,05,21,21,07,14.20
2002,05,21,21,08,14.20
2002,05,21,21,09,14.10
2002,05,21,21,10,14.20
2002,05,21,21,11,14.10
2002,05,21,21,12,14.10
2002,05,21,21,13,14.10
2002,05,21,21,14,14.10
2002,05,21,21,15,14.20
2002,05,21,21,16,14.20
2002,05,21,21,17,14.10
2002,05,21,21,18,14.10
2002,05,21,21,19,14.00
2002,05,21,21,20,14.00
2002,05,21,21,21,14.00
2002,05,21,21,22,14.00
2002,05,21,21,23,14.00
2002,05,21,21,24,14.00
2002,05,21,21,25,13.90
2002,05,21,21,26,14.00
2002,05,21,21,27,14.00
2002,05,21,21,28,13.90
2002,05,21,21,29,13.90
2002,05,21,21,30,13.90
2002,05,21,21,31,13.90
2002,05,21,21,32,13.90
2002,05,21,21,33,13.80
2002,05,21,21,34,13.90
2002,05,21,21,35,13.80
2002,05,21,21,36,13.80
2002,05,21,21,37,13.70
2002,05,21,21,38,13.70
2002,05,21,21,39,13.70
2002,05,21,21,40,13.70
2002,05,21,21,41,13.70
2002,05,21,21,42,13.70
2002,05,21,21,43,13.70
2002,05,21,21,44,13.70
2002,05,21,21,45,13.60
2002,05,21,21,46,13.60
2002,05,21,21,47,13.60
2002,05,21,21,48,13.60
2002,05,21,21,49,13.60
2002,05,21,21,50,13.60
2002,05,21,21,51,13.60
2002,05,21,21,52,13.50
2002,05,21,21,53,13.50
2002,05,21,21,54,13.50
2002,05,21,21,55,13.50
2002,05,21,21,56,13.50
2002,05,21,21,57,13.50
2002,05,21,21,58,13.40
2002,05,21,21,59,13.40
2002,05,21,22,00,13.40
2002,05,21,22,01,13.40
2002,05,21,22,02,13.40
2002,05,21,22,03,13.30
2002,05,21,22,04,13.30
2002,05,21,22,05,13.30
2002,05,21,22,06,13.30
2002,05,21,22,07,13.30
2002,05,21,22,08,13.30
2002,05,21,22,09,13.30
2002,05,21,22,10,13.30
2002,05,21,22,11,13.30
2002,05,21,22,12,13.30
2002,05,21,22,13,13.30
2002,05,21,22,14,13.20
2002,05,21,22,15,13.20
2002,05,21,22,16,13.20
2002,05,21,22,17,13.20
2002,05,21,22,18,13.20
2002,05,21,22,19,13.20
2002,05,21,22,20,13.10
2002,05,21,22,21,13.10
2002,05,21,22,22,13.10
2002,05,21,22,23,13.10
2002,05,21,22,24,13.10
2002,05,21,22,25,13.10
2002,05,21,22,26,13.00
2002,05,21,22,27,13.00
2002,05,21,22,28,13.00
2002,05,21,22,29,12.90
2002,05,21,22,30,12.90
2002,05,21,22,31,12.90
2002,05,21,22,32,12.80
2002,05,21,22,33,12.80
2002,05,21,22,34,12.80
2002,05,21,22,35,12.70
2002,05,21,22,36,12.70
2002,05,21,22,37,12.70
2002,05,21,22,38,12.70
2002,05,21,22,39,12.70
2002,05,21,22,40,12.70
2002,05,21,22,41,12.70
2002,05,21,22,42,12.70
2002,05,21,22,43,12.70
2002,05,21,22,44,12.60
2002,05,21,22,45,12.60
2002,05,21,22,46,12.60
2002,05,21,22,47,12.60
2002,05,21,22,48,12.60
2002,05,21,22,49,12.60
2002,05,21,22,50,12.60
2002,05,21,22,51,12.60
2002,05,21,22,52,12.60
2002,05,21,22,53,12.60
2002,05,21,22,54,12.60
2002,05,21,22,55,12.50
2002,05,21,22,56,12.50
2002,05,21,22,57,12.40
2002,05,21,22,58,12.40
2002,05,21,22,59,12.40
2002,05,21,23,00,12.40
2002,05,21,23,01,12.40
2002,05,21,23,02,12.40
2002,05,21,23,03,12.40
2002,05,21,23,04,12.40
2002,05,21,23,05,12.40
2002,05,21,23,06,12.40
2002,05,21,23,07,12.40
2002,05,21,23,08,12.40
2002,05,21,23,09,12.40
2002,05,21,23,10,12.40
2002,05,21,23,11,12.40
2002,05,21,23,12,12.40
2002,05,21,23,13,12.40
2002,05,21,23,14,12.40
2002,05,21,23,15,12.30
2002,05,21,23,16,12.30